| time (UTC) | temp F | wind direction | speed MPH | gust MPH | rain 1hr in | rain 24hr in | rain mn in | humidity % | barometer mb |
| 20260504050415 | 72 | 221 | 0.0 | 0.0 | 0.00 | 0.00 | 0.00 | 53 | 1010.4 |
| 20260504045912 | 72 | 222 | 1.0 | 1.0 | 0.00 | 0.00 | 0.00 | 53 | 1010.4 |
| 20260504045408 | 72 | 220 | 0.0 | 0.0 | 0.00 | 0.00 | 0.00 | 52 | 1010.0 |
| 20260504044904 | 73 | 218 | 1.0 | 1.0 | 0.00 | 0.00 | 0.00 | 51 | 1009.7 |
| 20260504044401 | 74 | 227 | 1.0 | 1.0 | 0.00 | 0.00 | 0.00 | 50 | 1010.0 |
| 20260504043859 | 75 | 218 | 0.0 | 0.0 | 0.00 | 0.00 | 0.00 | 48 | 1009.7 |
| 20260504043355 | 75 | 220 | 0.0 | 1.0 | 0.00 | 0.00 | 0.00 | 47 | 1009.7 |
| 20260504042853 | 75 | 227 | 1.0 | 1.0 | 0.00 | 0.00 | 0.00 | 47 | 1009.7 |
| 20260504042349 | 75 | 230 | 1.0 | 1.0 | 0.00 | 0.00 | 0.00 | 48 | 1009.7 |
| 20260504041845 | 75 | 218 | 0.0 | 0.0 | 0.00 | 0.00 | 0.00 | 50 | 1009.3 |
| 20260504041342 | 75 | 218 | 0.0 | 0.0 | 0.00 | 0.00 | 0.00 | 50 | 1009.7 |
| 20260504040838 | 76 | 224 | 0.0 | 0.0 | 0.00 | 0.00 | 0.00 | 50 | 1009.7 |
| 20260504040336 | 76 | 216 | 0.0 | 0.0 | 0.00 | 0.00 | 0.00 | 48 | 1009.3 |
| 20260504035831 | 77 | 216 | 0.0 | 0.0 | 0.00 | 0.00 | 0.00 | 46 | 1009.3 |
| 20260504035330 | 77 | 217 | 0.0 | 0.0 | 0.00 | 0.00 | 0.00 | 46 | 1009.3 |
| 20260504034826 | 78 | 215 | 0.0 | 0.0 | 0.00 | 0.00 | 0.00 | 47 | 1009.3 |
| 20260504034324 | 79 | 225 | 1.0 | 1.0 | 0.00 | 0.00 | 0.00 | 45 | 1009.3 |
| 20260504033821 | 80 | 215 | 0.0 | 0.0 | 0.00 | 0.00 | 0.00 | 44 | 1009.0 |
| 20260504033319 | 80 | 216 | 0.0 | 0.0 | 0.00 | 0.00 | 0.00 | 44 | 1009.0 |
| 20260504032815 | 81 | 225 | 1.0 | 1.0 | 0.00 | 0.00 | 0.00 | 43 | 1009.0 |
| 20260504032312 | 82 | 222 | 1.0 | 2.0 | 0.00 | 0.00 | 0.00 | 42 | 1009.3 |
| 20260504031809 | 82 | 254 | 3.0 | 3.0 | 0.00 | 0.00 | 0.00 | 41 | 1009.0 |
| 20260504031306 | 83 | 225 | 1.0 | 1.0 | 0.00 | 0.00 | 0.00 | 41 | 1009.0 |
| 20260504030802 | 83 | 224 | 3.0 | 3.0 | 0.00 | 0.00 | 0.00 | 40 | 1009.0 |
| 20260504030300 | 84 | 240 | 2.0 | 2.0 | 0.00 | 0.00 | 0.00 | 39 | 1009.0 |
| 20260504025756 | 85 | 214 | 1.0 | 1.0 | 0.00 | 0.00 | 0.00 | 38 | 1009.0 |
| 20260504025253 | 86 | 233 | 3.0 | 3.0 | 0.00 | 0.00 | 0.00 | 36 | 1009.0 |
| 20260504024749 | 87 | 233 | 0.0 | 0.0 | 0.00 | 0.00 | 0.00 | 36 | 1009.0 |
| 20260504024246 | 87 | 225 | 0.0 | 0.0 | 0.00 | 0.00 | 0.00 | 36 | 1009.0 |
| 20260504023743 | 87 | 238 | 0.0 | 0.0 | 0.00 | 0.00 | 0.00 | 35 | 1009.0 |
| 20260504023239 | 87 | 244 | 2.0 | 2.0 | 0.00 | 0.00 | 0.00 | 34 | 1009.0 |
| 20260504022735 | 87 | 237 | 0.0 | 0.0 | 0.00 | 0.00 | 0.00 | 34 | 1009.0 |
| 20260504022232 | 88 | 284 | 2.0 | 3.0 | 0.00 | 0.00 | 0.00 | 34 | 1009.0 |
| 20260504021729 | 88 | 239 | 0.0 | 1.0 | 0.00 | 0.00 | 0.00 | 34 | 1009.0 |
| 20260504021226 | 88 | 263 | 3.0 | 5.0 | 0.00 | 0.00 | 0.00 | 34 | 1009.0 |
| 20260504020723 | 87 | 245 | 2.0 | 2.0 | 0.00 | 0.00 | 0.00 | 34 | 1009.0 |
| 20260504020219 | 87 | 285 | 3.0 | 3.0 | 0.00 | 0.00 | 0.00 | 34 | 1008.7 |
| 20260504015716 | 88 | 285 | 0.0 | 1.0 | 0.00 | 0.00 | 0.00 | 34 | 1009.0 |
| 20260504015212 | 88 | 253 | 3.0 | 5.0 | 0.00 | 0.00 | 0.00 | 34 | 1009.0 |
| 20260504014708 | 88 | 234 | 3.0 | 3.0 | 0.00 | 0.00 | 0.00 | 34 | 1009.0 |
| 20260504014205 | 88 | 301 | 5.0 | 7.0 | 0.00 | 0.00 | 0.00 | 34 | 1009.0 |
| 20260504013703 | 88 | 221 | 1.0 | 1.0 | 0.00 | 0.00 | 0.00 | 33 | 1009.0 |
| 20260504013200 | 88 | 257 | 3.0 | 5.0 | 0.00 | 0.00 | 0.00 | 33 | 1009.0 |
| 20260504012656 | 88 | 251 | 3.0 | 5.0 | 0.00 | 0.00 | 0.00 | 33 | 1009.0 |
| 20260504012154 | 88 | 278 | 5.0 | 7.0 | 0.00 | 0.00 | 0.00 | 33 | 1009.0 |
| 20260504011651 | 88 | 233 | 3.0 | 5.0 | 0.00 | 0.00 | 0.00 | 33 | 1009.0 |
| 20260504011148 | 89 | 253 | 3.0 | 3.0 | 0.00 | 0.00 | 0.00 | 32 | 1009.0 |
| 20260504010643 | 89 | 263 | 0.0 | 0.0 | 0.00 | 0.00 | 0.00 | 33 | 1009.3 |
| 20260504010139 | 89 | 257 | 0.0 | 1.0 | 0.00 | 0.00 | 0.00 | 32 | 1009.0 |
| 20260504005637 | 89 | 244 | 0.0 | 0.0 | 0.00 | 0.00 | 0.00 | 33 | 1009.3 |
| 20260504005133 | 89 | 243 | 1.0 | 1.0 | 0.00 | 0.00 | 0.00 | 33 | 1009.0 |
| 20260504004631 | 89 | 275 | 1.0 | 3.0 | 0.00 | 0.00 | 0.00 | 32 | 1009.3 |
| 20260504004128 | 89 | 222 | 2.0 | 3.0 | 0.00 | 0.00 | 0.00 | 32 | 1009.3 |
| 20260504003624 | 89 | 125 | 2.0 | 5.0 | 0.00 | 0.00 | 0.00 | 33 | 1009.3 |
| 20260504003121 | 90 | 304 | 3.0 | 5.0 | 0.00 | 0.00 | 0.00 | 32 | 1009.3 |
| 20260504002618 | 90 | 205 | 1.0 | 3.0 | 0.00 | 0.00 | 0.00 | 32 | 1009.3 |
| 20260504002116 | 90 | 273 | 0.0 | 0.0 | 0.00 | 0.00 | 0.00 | 31 | 1009.3 |
| 20260504001613 | 91 | 340 | 3.0 | 5.0 | 0.00 | 0.00 | 0.00 | 32 | 1009.3 |
| 20260504001109 | 90 | 207 | 0.0 | 0.0 | 0.00 | 0.00 | 0.00 | 32 | 1009.7 |
| 20260504000606 | 90 | 293 | 3.0 | 7.0 | 0.00 | 0.00 | 0.00 | 32 | 1009.3 |
| 20260504000104 | 91 | 291 | 1.0 | 3.0 | 0.00 | 0.00 | 0.00 | 32 | 1009.7 |